Hourly Data Report for September 03, 2017

All times are specified in Local Standard Time (LST). Add 1 hour to adjust for Daylight Saving Time where and when it is observed.

PENTICTON A
BRITISH COLUMBIA

49°27'45.000" N
119°36'08.000" W
344.40 m
1126146
71889
YYF

Download Data

Hourly Data (September 2017)
Hourly Data Report for September 3, 2017
Temp Definition
°C
Dew Point Temp Definition
°C
Rel Hum Definition
%
Wind Dir Definition
10's deg

Wind Spd Definition
km/h
Visibility Definition
km
Stn Press Definition
kPa
Hmdx Definition


Wind Chill Definition


Weather Definition


TIME
00:00 Legend Double Dagger 21.1 8.2 43 32 4 24.1 97.37     LegendNANA
01:00 Legend Double Dagger 17.5 10.6 64 10 4 24.1 97.47     Clear
02:00 Legend Double Dagger 17.2 7.5 52 31 4 24.1 97.49     LegendNANA
03:00 Legend Double Dagger 18.7 8.1 50 8 5 24.1 97.54     LegendNANA
04:00 Legend Double Dagger 14.8 7.3 60 36 2 24.1 97.56     Clear
05:00 Legend Double Dagger 13.5 7.2 65 4 3 24.1 97.59     LegendNANA
06:00 Legend Double Dagger 14.7 7.9 64 36 3 24.1 97.66     LegendNANA
07:00 Legend Double Dagger 18.2 9.9 58 1 13 24.1 97.72     Mainly Clear
08:00 Legend Double Dagger 22.9 11.2 47 34 11 24.1 97.71 25   LegendNANA
09:00 Legend Double Dagger 24.6 11.5 43 36 10 24.1 97.70 27   LegendNANA
10:00 Legend Double Dagger 26.2 11.9 40 34 13 24.1 97.65 28   Clear
11:00 Legend Double Dagger 27.4 12.0 38 36 13 19.3 97.59 30   LegendNANA
12:00 Legend Double Dagger 28.4 12.6 37 1 14 16.1 97.54 31   LegendNANA
13:00 Legend Double Dagger 30.0 12.3 33 36 9 16.1 97.49 32   Mainly Clear
14:00 Legend Double Dagger 31.2 11.2 29 2 6 24.1 97.40 33   LegendNANA
15:00 Legend Double Dagger 30.2 12.6 33 1 20 16.1 97.34 33   LegendNANA
16:00 Legend Double Dagger 30.6 12.4 32 2 13 16.1 97.36 33   Mainly Clear
17:00 Legend Double Dagger 29.1 14.2 40 34 5 16.1 97.38 33   LegendNANA
18:00 Legend Double Dagger 27.1 13.8 44 33 4 16.1 97.41 30   LegendNANA
19:00 Legend Double Dagger 23.2 12.1 49 35 8 9.7 97.48 26   Smoke
20:00 Legend Double Dagger 23.1 9.9 43 34 13 9.7 97.57     Smoke
21:00 Legend Double Dagger 23.9 9.1 39 34 12 9.7 97.65 25   Smoke
22:00 Legend Double Dagger 23.9 8.8 38 35 16 9.7 97.71 25   Smoke
23:00 Legend Double Dagger 22.1 8.8 42 34 14 9.7 97.80     Smoke

Notes on Data Quality.

Legend

  • E = Estimated
  • M = Missing
  • NA = Not Available
  • ‡ = Partner data that is not subject to review by the National Climate Archives
Date modified: